Regional Weather Roundup
Issued by NWS

Home | Current Version | Previous Version | Text Only | Print | Product List | Glossary Off
Versions: 1 2 3 4 5 6 7 8 9 10 11 12 13 14 15 16 17 18 19 20 21 22 23 24 25 26 27 28 29 30 31 32 33 34 35 36 37 38 39 40 41 42 43 44 45 46 47 48 49 50

000
ASUS43 KDMX 150607
RWRIA

WEATHER ROUNDUP FOR IOWA
NATIONAL WEATHER SERVICE DES MOINES IA
100 AM CDT MON SEP 15 2014

NOTE: "FAIR" INDICATES FEW OR NO CLOUDS BELOW 12,000 FEET WITH NO
SIGNIFICANT WEATHER AND/OR OBSTRUCTIONS TO VISIBILITY.

* - THESE STATIONS ARE NOT NWS STATIONS...THUS NOT UNDER NWS
QUALITY CONTROL.  THEY ALSO DO NOT REPORT WEATHER SUCH
AS PRECIPITATION OR FOG.

IAZ001>003-012>014-020>022-031>034-043>046-150700-
   NORTHWEST IOWA

CITY           SKY/WX    TMP DP  RH WIND       PRES   REMARKS
CARROLL *      CLOUDY    57  55  94 S3        30.08F
CHEROKEE *     MOCLDY    54  51  89 NE6       30.11R
DENISON *      CLOUDY    59  54  82 SE5       30.06F
LE MARS *        N/A     55  48  76 NE9G16    30.11S
ORANGE CITY *  CLOUDY    55  46  71 NE7       30.12S
SHELDON *      CLOUDY    52  45  76 NE7       30.11S
SIOUX CITY     PTCLDY    54  50  86 CALM      30.08S
6HR MIN TEMP:  53; 6HR MAX TEMP:  65;

SPENCER        CLOUDY    53  45  74 NE7       30.13S
6HR MIN TEMP:  51; 6HR MAX TEMP:  64;

STORM LAKE *   PTCLDY    54  54 100 NE7G13    30.10S
$$

IAZ055>058-069>071-079>083-090>094-150700-
   SOUTHWEST IOWA

CITY           SKY/WX    TMP DP  RH WIND       PRES   REMARKS
ATLANTIC *     CLOUDY    59  55  88 CALM      30.09F
AUDUBON *      CLOUDY    61  57  88 CALM      30.10F
CLARINDA *     CLOUDY    63  57  82 CALM      30.09F
COUNCIL BLFS * CLOUDY    61  57  88 E8        30.06F
CRESTON *      CLOUDY    59  55  88 E5        30.11F
HARLAN  *      CLOUDY    59  55  88 S5        30.11F
LAMONI         CLOUDY    60  54  80 NE3       30.11F
6HR MIN TEMP:  60; 6HR MAX TEMP:  64;

SHENANDOAH *   CLOUDY    63  57  82 E6        30.07F
$$

IAZ047>049-059>061-072>074-084-150700-
   CENTRAL IOWA

CITY           SKY/WX    TMP DP  RH WIND       PRES   REMARKS
AMES           CLOUDY    55  54  96 SE3       30.11F
6HR MIN TEMP:  53; 6HR MAX TEMP:  62;

ANKENY *       CLOUDY    61  54  77 S3        30.12S
CHARITON *     CLOUDY    59  55  88 SE5       30.12S
DES MOINES     CLOUDY    63  51  65 CALM      30.12F
6HR MIN TEMP:  62; 6HR MAX TEMP:  66;

GRINNELL*      CLOUDY    55  50  82 SE3       30.14S
KNOXVILLE *    CLOUDY    59  52  77 SE6       30.11S
MARSHALLTOWN   PTCLDY    50  48  93 E5        30.12F
6HR MIN TEMP:  49; 6HR MAX TEMP:  61;

PELLA *        CLOUDY    59  52  79 SE3       30.14S
PERRY *        CLOUDY    59  55  88 S6        30.10F
$$

IAZ004>006-015-016-023>025-035-036-150700-
   NORTH CENTRAL IOWA

CITY           SKY/WX    TMP DP  RH WIND       PRES   REMARKS
ALGONA *       CLOUDY    54  48  82 NE8       30.13S
CLARION *        N/A     52  52 100 NE6       30.11F
ESTHERVILLE    CLOUDY    51  45  79 NE7       30.13F
6HR MIN TEMP:  51; 6HR MAX TEMP:  63;

FORT DODGE *   CLOUDY    54  52  94 E3        30.10F
MASON CITY     CLOUDY    51  49  92 N3        30.15S
6HR MIN TEMP:  51; 6HR MAX TEMP:  62;

FOREST CITY *  CLOUDY    54  48  82 N7        30.13S
IOWA FALLS *   CLOUDY    52  48  87 CALM      30.12F
$$

IAZ007>011-017>019-026>030-037>042-050>054-066-150700-
   NORTHEAST IOWA

CITY           SKY/WX    TMP DP  RH WIND       PRES   REMARKS
CEDAR RAPIDS   MOCLDY    50  48  93 SE3       30.14F
6HR MIN TEMP:  50; 6HR MAX TEMP:  60;

CHARLES CITY * PTCLDY    52  50  93 CALM      30.13F
CLINTON *      PTCLDY    46  43  87 SE5       30.18F
DECORAH *      PTCLDY    52  50  93 CALM      30.13F
DUBUQUE        CLEAR     48  45  89 S5        30.15F
6HR MIN TEMP:  48; 6HR MAX TEMP:  57;

MONTICELLO *   CLEAR     48  46  93 CALM      30.14F
OELWEIN *      CLOUDY    52  50  93 S5        30.14F
WATERLOO       MOCLDY    54  49  83 S5        30.12F
6HR MIN TEMP:  52; 6HR MAX TEMP:  62;

$$

IAZ064-065-067-068-078-150700-
   EAST CENTRAL IOWA

CITY           SKY/WX    TMP DP  RH WIND       PRES   REMARKS
DAVENPORT      PTCLDY    50  46  86 SE6       30.16F
6HR MIN TEMP:  50; 6HR MAX TEMP:  59;

IOWA CITY      CLOUDY    54  51  90 CALM      30.15F
6HR MIN TEMP:  53; 6HR MAX TEMP:  61;

MT. PLEASANT * LGT RAIN  55  49  80 SE3       30.15F
MUSCATINE *    CLOUDY    54  50  87 CALM      30.16S
QUAD CITIES    MOCLDY    52  48  86 NE5       30.16F
6HR MIN TEMP:  51; 6HR MAX TEMP:  60;

$$

IAZ062-063-075>077-085>089-095>099-150700-
   SOUTHEAST IOWA

CITY           SKY/WX    TMP DP  RH WIND       PRES   REMARKS
BURLINGTON     CLOUDY    56  53  90 CALM      30.15S
6HR MIN TEMP:  53; 6HR MAX TEMP:  61;

FAIRFIELD *    CLOUDY    57  52  82 SE3       30.14F
FORT MADISON * CLOUDY    61  52  72 S5        30.15F
KEOKUK *       CLOUDY    59  54  82 CALM      30.14F
OSKALOOSA *    CLOUDY    58  52  82 SE3       30.14S
CENTERVILLE *  MOCLDY    57  55  94 CALM      30.14F
OTTUMWA        CLOUDY    57  52  83 SE3       30.13F
6HR MIN TEMP:  55; 6HR MAX TEMP:  62; 6HR PCP: TRACE;

WASHINGTON *   CLOUDY    57  54  88 S5        30.15S
$$

ABBREVIATIONS USED IN REMARKS
   TC - TEMPERATURES IN CELSIUS
  WCI - WIND CHILL INDEX
   HX - HEAT INDEX
  VSB - VISIBILITY
$$




USA.gov is the U.S. government's official web portal to all federal, state and local government web resources and services.